[[{"header":{"parameterUnit":"m.s-1","parameterCategory":2,"la1":30.2991,"la2":30.254,"lo1":-89.0895,"lo2":-89.0444,"dy":0.0017,"dx":0.0017,"nx":28,"ny":28,"refTime":"2025-03-23T09:00:00:Z","depth":"0","parameterNumber":2,"parameterNumberName":"U-component_of_CURRENTS"},"data":[0,0,0,0,0,0,0,0,0,0,0,0,0,0,0,0,0,0,0,0,0,0,0,0,0,0,0,0,0,0,0,0,0,0,0,0,0,0,0,0,0,0,0,0,0,0,0,0,0,0,0,0,0,0,0,0,0,0,0.344,0.3441,0,0.3518,0.3519,0.352,0.3536,0.3536,0.3536,0.3535,0.3501,0.35,0.3499,0,0,0,0,0,0,0,0,0,0,0,0,0,0.3299,0.3302,0.344,0.3441,0.3443,0.3518,0.3519,0.352,0.3536,0.3536,0.3535,0.3535,0.3501,0.35,0.3499,0,0,0,0,0,0,0,0,0,0,0,0,0,0.3363,0.3302,0.344,0.3463,0.3466,0.3518,0.3519,0.352,0.3536,0.3536,0.3535,0.3535,0.3501,0.35,0.3499,0.3498,0,0,0.3496,0.3495,0,0,0,0,0,0,0,0,0.336,0.3368,0.3458,0.3462,0.3465,0.3521,0.3457,0.3508,0.3536,0.3505,0.3535,0.3535,0.35,0.3499,0.351,0.3496,0.3495,0.3495,0.3495,0.3494,0.3494,0,0,0,0,0,0,0,0.3355,0.3365,0.3467,0.346,0.3464,0.3468,0.3477,0.3467,0.3498,0.3508,0.351,0.3526,0.35,0.3511,0.3509,0.3494,0.3496,0.3495,0.3494,0.3493,0.3506,0.3507,0,0,0,0,0,0,0.3355,0.3361,0.3464,0.3469,0.3416,0.3472,0.3481,0.35,0.35,0.3502,0.3526,0.3526,0.3513,0.351,0.3508,0.3515,0.3494,0.3493,0.3493,0.3505,0.3506,0.3508,0,0,0,0,0,0,0.3352,0.3364,0.3461,0.342,0.3433,0.3475,0.3496,0.3502,0.3519,0.3516,0.3515,0.3538,0.3513,0.3509,0.3508,0.3513,0.3493,0.3492,0.3504,0.3506,0.3507,0.3523,0,0,0,0,0,0,0.3348,0.3362,0.3372,0.342,0.3436,0.3497,0.3497,0.3504,0.353,0.3532,0.3526,0.3523,0.3512,0.351,0.3507,0.3511,0.3491,0.3503,0.3505,0.3506,0.3521,0.3525,0.3528,0,0,0,0,0,0.3342,0.337,0.3372,0.3385,0.345,0.3498,0.3506,0.3531,0.3531,0.3543,0.354,0.3523,0.352,0.351,0.3506,0.351,0.3502,0.3504,0.3506,0.352,0.3524,0.3528,0,0,0,0,0,0,0.3313,0.3376,0.3379,0.3423,0.3456,0.3503,0.3522,0.3535,0.3545,0.3541,0.3531,0.3528,0.3531,0.3523,0.3512,0.3523,0.351,0.3512,0.3522,0.3526,0.3529,0.36,0.349,0,0,0,0,0,0.3312,0.3349,0.3396,0.3429,0.3446,0.348,0.3502,0.3519,0.3539,0.3544,0.3537,0.3534,0.3538,0.3533,0.3532,0.3532,0.3595,0.3536,0.3539,0.3542,0.36,0.3711,0.3731,0.3515,0.3515,0.3515,0,0,0.3311,0.3349,0.337,0.3425,0.345,0.3491,0.3492,0.353,0.3563,0.3536,0.3559,0.3543,0.3543,0.3548,0.3549,0.3539,0.3628,0.3545,0.3547,0.3605,0.3716,0.3737,0.3756,0.3517,0.3516,0.3516,0,0,0.3339,0.3358,0.3401,0.3432,0.3478,0.3499,0.3511,0.3549,0.3563,0.358,0.3575,0.358,0.3564,0.3583,0.3587,0.3615,0.3644,0.359,0.366,0.3765,0.3785,0.3803,0.3875,0.39,0.3589,0.3589,0.3589,0,0.3333,0.3394,0.3417,0.3465,0.3495,0.3505,0.3549,0.3573,0.3602,0.362,0.3589,0.3617,0.3597,0.3649,0.3656,0.3625,0.3685,0.3635,0.3773,0.3793,0.3812,0.3881,0.3909,0.359,0.359,0.3589,0.3589,0,0.3398,0.3441,0.3468,0.3529,0.3556,0.3596,0.3629,0.3646,0.3644,0.3668,0.3702,0.369,0.3719,0.3693,0.3682,0.379,0.3788,0.3765,0.3766,0.3835,0.3902,0.3931,0.3591,0.3591,0.359,0.359,0,0,0.3407,0.3497,0.3508,0.353,0.3593,0.3615,0.3669,0.3721,0.3758,0.3767,0.3832,0.3833,0.3834,0.3846,0.3825,0.3907,0.4052,0.3899,0.3903,0.3979,0.4283,0.4209,0.4232,0.4058,0.4064,0.4068,0.4265,0,0.345,0.3538,0.3578,0.3638,0.3673,0.3698,0.3744,0.3785,0.3809,0.3865,0.3889,0.3928,0.389,0.3896,0.3982,0.4043,0.4136,0.4002,0.4202,0.4209,0.4142,0.4266,0.4044,0.4196,0.4293,0.4297,0.4301,0,0.3507,0.3552,0.3625,0.3679,0.3696,0.3728,0.3785,0.3833,0.392,0.3944,0.4012,0.4034,0.4152,0.4099,0.4302,0.4221,0.4282,0.4322,0.433,0.4294,0.419,0.4151,0.4244,0.4079,0.4345,0.4341,0.4338,0,0.3491,0.3581,0.3629,0.3654,0.3721,0.3744,0.3776,0.385,0.3901,0.4011,0.4065,0.4187,0.426,0.4383,0.4462,0.4408,0.4686,0.4607,0.4602,0.4595,0.4469,0.4441,0.4442,0.4792,0.4792,0.4791,0.4791,0,0.3522,0.3555,0.3618,0.3639,0.3684,0.3728,0.3789,0.3841,0.3942,0.4018,0.4109,0.4204,0.4348,0.4493,0.4552,0.4683,0.4767,0.468,0.4673,0.4459,0.443,0.4329,0.4272,0.4798,0.4797,0.4795,0.4794,0,0.3502,0.3553,0.3601,0.3662,0.368,0.3707,0.3793,0.3839,0.3938,0.4054,0.4101,0.428,0.4472,0.4596,0.48,0.479,0.477,0.4924,0.4648,0.4606,0.4401,0.4353,0.4342,0.4219,0.4962,0.4962,0.4962,0,0.3501,0.3526,0.36,0.3629,0.3655,0.3705,0.3742,0.383,0.3885,0.4088,0.4144,0.437,0.4497,0.4766,0.4814,0.4935,0.4789,0.4778,0.4634,0.442,0.4364,0.4218,0.4103,0.4458,0.4454,0.445,0.4448,0,0.3489,0.3519,0.3562,0.3621,0.3657,0.3694,0.3749,0.3787,0.39,0.401,0.4153,0.4275,0.4518,0.4553,0.4714,0.4745,0.4515,0.4708,0.4575,0.4076,0.3838,0.37,0.4277,0.4416,0.442,0.4422,0.4423,0.4425,0.348,0.3509,0.3571,0.3617,0.3647,0.3652,0.3643,0.3707,0.378,0.3874,0.4066,0.4164,0.4276,0.4468,0.4492,0.4309,0.4342,0.4135,0.413,0.403,0.3802,0.4308,0.4375,0.4377,0.438,0.4382,0.4384,0,0.3475,0.3513,0.356,0.3587,0.3571,0.3608,0.362,0.3578,0.3596,0.373,0.3831,0.3885,0.3914,0.3971,0.3877,0.3728,0.3574,0.3605,0.3329,0.3272,0.3796,0.3659,0.3465,0.3465,0.3465,0.3465,0.3466,0.3466,0.3483,0.3524,0.3544,0.3504,0.3497,0.3412,0.3386,0.3336,0.3367,0.3343,0.3337,0.3428,0.3521,0.352,0.3332,0.3256,0.3007,0.2874,0.291,0.323,0.3276,0.332,0.3174,0.2882,0.2881,0.22,0.2195,0.2191]},{"header":{"parameterUnit":"m.s-1","parameterCategory":2,"la1":30.2991,"la2":30.254,"lo1":-89.0895,"lo2":-89.0444,"dy":0.0017,"dx":0.0017,"nx":28,"ny":28,"refTime":"2025-03-23T09:00:00:Z","depth":"0","parameterNumber":3,"parameterNumberName":"V-component_of_CURRENTS"},"data":[0,0,0,0,0,0,0,0,0,0,0,0,0,0,0,0,0,0,0,0,0,0,0,0,0,0,0,0,0,0,0,0,0,0,0,0,0,0,0,0,0,0,0,0,0,0,0,0,0,0,0,0,0,0,0,0,0,0,-0.0185,-0.0186,0,-0.0254,-0.0254,-0.0255,-0.029,-0.0291,-0.0291,-0.0291,-0.0319,-0.0319,-0.032,0,0,0,0,0,0,0,0,0,0,0,0,0,-0.0074,-0.0076,-0.0185,-0.0186,-0.0187,-0.0254,-0.0254,-0.0255,-0.029,-0.0291,-0.0291,-0.0291,-0.0319,-0.0319,-0.032,0,0,0,0,0,0,0,0,0,0,0,0,0,-0.0128,-0.0076,-0.0185,-0.0214,-0.0218,-0.0254,-0.0255,-0.0255,-0.029,-0.0291,-0.0291,-0.0291,-0.0318,-0.0319,-0.032,-0.0317,0,0,-0.0322,-0.0323,0,0,0,0,0,0,0,0,-0.0125,-0.0132,-0.0209,-0.0213,-0.0217,-0.0266,-0.0226,-0.0275,-0.029,-0.026,-0.0291,-0.0291,-0.0299,-0.0301,-0.031,-0.0318,-0.0319,-0.0322,-0.0323,-0.0323,-0.0323,0,0,0,0,0,0,0,-0.0121,-0.0129,-0.021,-0.021,-0.0215,-0.0221,-0.0229,-0.0235,-0.0274,-0.0263,-0.0266,-0.0278,-0.03,-0.0309,-0.0311,-0.032,-0.0322,-0.0323,-0.0323,-0.0324,-0.0268,-0.0266,0,0,0,0,0,0,-0.0118,-0.0126,-0.0208,-0.0212,-0.0174,-0.0223,-0.0232,-0.0248,-0.0275,-0.028,-0.0277,-0.0279,-0.0308,-0.031,-0.0312,-0.0255,-0.0323,-0.0324,-0.0324,-0.027,-0.0268,-0.0266,0,0,0,0,0,0,-0.0116,-0.0125,-0.0205,-0.0172,-0.0183,-0.0225,-0.0242,-0.0249,-0.0257,-0.0287,-0.0291,-0.0278,-0.0308,-0.0311,-0.0299,-0.0259,-0.0324,-0.0325,-0.0272,-0.0269,-0.0267,-0.0177,0,0,0,0,0,0,-0.0112,-0.0124,-0.0125,-0.0172,-0.0185,-0.0208,-0.0242,-0.025,-0.0265,-0.0268,-0.0289,-0.0292,-0.0309,-0.0298,-0.03,-0.0261,-0.0325,-0.0275,-0.0271,-0.0267,-0.0182,-0.0171,-0.0162,0,0,0,0,0,-0.0108,-0.0104,-0.0124,-0.0134,-0.0188,-0.0208,-0.0213,-0.0243,-0.0264,-0.0254,-0.0267,-0.0291,-0.0276,-0.0297,-0.03,-0.026,-0.0276,-0.0272,-0.0268,-0.0187,-0.0174,-0.0162,0,0,0,0,0,0,-0.0046,-0.0109,-0.0132,-0.0145,-0.0168,-0.0214,-0.021,-0.0238,-0.0243,-0.0246,-0.0275,-0.0277,-0.0249,-0.0267,-0.029,-0.0232,-0.0277,-0.0273,-0.0214,-0.0202,-0.0192,-0.016,-0.0326,0,0,0,0,0,-0.0037,-0.0053,-0.0106,-0.011,-0.0124,-0.0168,-0.0179,-0.0202,-0.0221,-0.0226,-0.0241,-0.0247,-0.0234,-0.0229,-0.0228,-0.0202,-0.0199,-0.0176,-0.0165,-0.0157,-0.0131,-0.0074,-0.0056,-0.0251,-0.0251,-0.0251,0,0,-0.0011,-0.0048,-0.0055,-0.0098,-0.0121,-0.0113,-0.0173,-0.0186,-0.0167,-0.0226,-0.0198,-0.0215,-0.022,-0.0185,-0.0173,-0.0195,-0.0105,-0.0151,-0.0144,-0.0122,-0.0068,-0.0049,-0.0032,-0.0248,-0.0249,-0.0249,0,0,0.0042,-0.0002,0.0005,-0.001,-0.0047,-0.0072,-0.0073,-0.0116,-0.0122,-0.0111,-0.0135,-0.0123,-0.0124,-0.0107,-0.01,-0.0032,-0.0055,-0.0037,0.0043,0.0098,0.0115,0.0129,0.0132,0.0147,-0.0029,-0.0029,-0.0029,0,0.0077,0.0075,0.0011,0.0022,0.0024,-0.0045,-0.0017,-0.003,-0.0057,-0.0044,-0.0085,-0.0053,-0.0075,-0.0002,0.0015,-0.0006,0.0003,-0.0006,0.0112,0.0127,0.0141,0.0141,0.0156,-0.0024,-0.0025,-0.0025,-0.0026,0,0.0134,0.0142,0.0149,0.014,0.0136,0.0147,0.0114,0.0117,0.0088,0.0077,0.0118,0.009,0.0118,0.0107,0.0077,0.017,0.0135,0.0116,0.0082,0.0167,0.016,0.0174,-0.0017,-0.0019,-0.0021,-0.0022,0,0,0.0192,0.019,0.0196,0.0216,0.0197,0.0199,0.0236,0.0252,0.0294,0.0261,0.0333,0.0322,0.0295,0.0303,0.027,0.0301,0.0375,0.0252,0.0253,0.0257,0.0469,0.0402,0.041,0.0382,0.0385,0.0388,0.0416,0,0.0262,0.0314,0.0293,0.036,0.0385,0.0351,0.0398,0.0403,0.0402,0.0454,0.0429,0.0479,0.0377,0.04,0.0415,0.0408,0.0422,0.0368,0.0387,0.0387,0.032,0.0428,0.0388,0.0408,0.0429,0.0431,0.0433,0,0.0328,0.0353,0.0425,0.0469,0.0477,0.0509,0.0565,0.0599,0.0647,0.0652,0.0685,0.0668,0.0718,0.0615,0.0639,0.0612,0.0549,0.0514,0.0515,0.0439,0.0348,0.0333,0.0432,0.0228,0.0454,0.0452,0.0451,0,0.0397,0.045,0.0511,0.0524,0.056,0.0592,0.0619,0.0662,0.0723,0.0797,0.0867,0.0883,0.094,0.0882,0.0782,0.0734,0.0795,0.0722,0.0591,0.0582,0.0547,0.0531,0.046,0.0736,0.0736,0.0736,0.0736,0,0.0478,0.0527,0.0545,0.0577,0.0657,0.0661,0.0761,0.0788,0.0884,0.1008,0.0982,0.11,0.1018,0.1025,0.0882,0.0795,0.0876,0.0638,0.0612,0.0571,0.0557,0.0374,0.0263,0.0737,0.0736,0.0736,0.0736,0,0.0542,0.0559,0.0623,0.0668,0.0688,0.0743,0.0842,0.0933,0.1007,0.1184,0.1231,0.1313,0.1339,0.1205,0.1141,0.0957,0.0736,0.0779,0.0706,0.0671,0.0335,0.023,0.0159,0.0092,0.0659,0.0658,0.0657,0,0.0582,0.062,0.0677,0.0725,0.0745,0.0828,0.0906,0.0984,0.1104,0.1324,0.1441,0.1527,0.161,0.146,0.1181,0.094,0.0739,0.0694,0.059,0.0344,0.0209,0.0131,0.0075,0.0563,0.0561,0.056,0.0559,0,0.0648,0.0658,0.0706,0.0803,0.0881,0.0985,0.111,0.1222,0.1372,0.1545,0.1776,0.1865,0.1737,0.1526,0.1174,0.0967,0.0544,0.0657,0.0457,0.0186,0.005,-0.0037,0.0471,0.0547,0.0548,0.0549,0.055,0.055,0.0687,0.0732,0.0796,0.089,0.0994,0.1152,0.1266,0.1441,0.1663,0.1956,0.201,0.2175,0.1785,0.1332,0.1044,0.0427,0.0471,0.0214,0.0124,0.0079,-0.0026,0.0425,0.0434,0.0435,0.0435,0.0436,0.0436,0,0.0741,0.0797,0.0888,0.1015,0.1153,0.1194,0.1417,0.1567,0.1851,0.2107,0.2305,0.2157,0.1688,0.1161,0.0352,-0.0044,-0.0177,-0.0265,-0.0384,-0.0401,0.0052,0.0002,-0.0147,-0.0146,-0.0146,-0.0146,-0.0146,-0.0146,0.0777,0.0865,0.0913,0.1131,0.1237,0.1439,0.1576,0.1813,0.2016,0.23,0.238,0.2406,0.19,0.0554,-0.0351,-0.0541,-0.0797,-0.0867,-0.0951,-0.0683,-0.0645,-0.061,-0.0682,-0.0972,-0.0973,-0.1367,-0.1372,-0.1375]}],[{"header":{"parameterUnit":"m.s-1","parameterCategory":2,"la1":30.2991,"la2":30.254,"lo1":-89.0895,"lo2":-89.0444,"dy":0.0017,"dx":0.0017,"nx":28,"ny":28,"refTime":"2025-03-23T09:00:00:Z","depth":"2","parameterNumber":2,"parameterNumberName":"U-component_of_CURRENTS"},"data":[0,0,0,0,0,0,0,0,0,0,0,0,0,0,0,0,0,0,0,0,0,0,0,0,0,0,0,0,0,0,0,0,0,0,0,0,0,0,0,0,0,0,0,0,0,0,0,0,0,0,0,0,0,0,0,0,0,0,0.302,0.302,0,0.3064,0.3064,0.3065,0.313,0.3131,0.3133,0.3134,0.3182,0.3182,0.3182,0,0,0,0,0,0,0,0,0,0,0,0,0,0.2831,0.2835,0.302,0.302,0.3021,0.3064,0.3064,0.3065,0.313,0.3132,0.3133,0.3135,0.3182,0.3182,0.3182,0,0,0,0,0,0,0,0,0,0,0,0,0,0.2896,0.2837,0.3019,0.306,0.3065,0.3064,0.3064,0.3065,0.313,0.3132,0.3134,0.3135,0.3182,0.3182,0.3182,0.3141,0,0,0.3182,0.3182,0,0,0,0,0,0,0,0,0.2893,0.2903,0.3054,0.3058,0.3062,0.3096,0.3016,0.3091,0.3129,0.3102,0.3134,0.3136,0.3153,0.3156,0.3156,0.3144,0.3146,0.3182,0.3182,0.3182,0.3182,0,0,0,0,0,0,0,0.2888,0.29,0.3035,0.3054,0.306,0.3022,0.3035,0.3029,0.3114,0.3105,0.311,0.3118,0.3156,0.3156,0.3158,0.3146,0.3182,0.3182,0.3182,0.3182,0.3231,0.3232,0,0,0,0,0,0,0.2894,0.2897,0.3034,0.3036,0.2983,0.3025,0.3039,0.3081,0.3114,0.3122,0.3117,0.3121,0.3155,0.3158,0.316,0.322,0.3182,0.3182,0.3182,0.323,0.3231,0.3233,0,0,0,0,0,0,0.2891,0.2907,0.3032,0.2967,0.2981,0.3027,0.3073,0.3081,0.3109,0.3124,0.3131,0.3141,0.3157,0.316,0.3179,0.3218,0.3182,0.3182,0.3228,0.323,0.3232,0.3272,0,0,0,0,0,0,0.2886,0.2907,0.2935,0.2969,0.2985,0.3043,0.3072,0.308,0.311,0.3118,0.3146,0.3151,0.3159,0.3179,0.3179,0.3218,0.3182,0.3226,0.3229,0.3231,0.3269,0.3275,0.328,0,0,0,0,0,0.2879,0.2907,0.2937,0.2953,0.3026,0.3043,0.3047,0.3083,0.311,0.3117,0.3144,0.3152,0.3196,0.3179,0.3179,0.3219,0.3225,0.3228,0.3231,0.3266,0.3273,0.328,0,0,0,0,0,0,0.2832,0.2918,0.2951,0.3005,0.3029,0.3056,0.3068,0.309,0.3115,0.3135,0.3149,0.3155,0.3197,0.3192,0.3173,0.3242,0.3219,0.3222,0.3246,0.3253,0.3258,0.3277,0.3182,0,0,0,0,0,0.2837,0.2895,0.2945,0.2988,0.3005,0.3039,0.3052,0.3081,0.3106,0.3122,0.3145,0.3174,0.3202,0.3214,0.3234,0.3248,0.327,0.328,0.3286,0.3291,0.3307,0.3365,0.3377,0.3242,0.3242,0.3242,0,0,0.2828,0.2885,0.2916,0.2982,0.301,0.3045,0.3053,0.3085,0.3133,0.3119,0.3187,0.3193,0.3211,0.3248,0.3266,0.3251,0.334,0.3294,0.3298,0.3313,0.3369,0.3383,0.3394,0.3244,0.3244,0.3243,0,0,0.283,0.2895,0.2938,0.2967,0.302,0.3049,0.3064,0.3108,0.315,0.3187,0.3213,0.3232,0.3265,0.3289,0.3304,0.3344,0.3371,0.3364,0.3402,0.3458,0.347,0.348,0.3523,0.3537,0.3362,0.3363,0.3363,0,0.2814,0.2897,0.2941,0.2983,0.3021,0.306,0.3102,0.3142,0.319,0.3227,0.322,0.3294,0.3288,0.3355,0.3368,0.3358,0.3397,0.3373,0.3466,0.3477,0.3487,0.3528,0.3544,0.3365,0.3365,0.3364,0.3364,0,0.285,0.2914,0.2935,0.3029,0.3061,0.3103,0.3168,0.3214,0.3261,0.3298,0.3373,0.3368,0.3419,0.3413,0.3397,0.3478,0.3485,0.3469,0.3449,0.3503,0.3543,0.3558,0.3368,0.3367,0.3367,0.3366,0,0,0.2851,0.2944,0.2964,0.3007,0.31,0.3127,0.3218,0.3301,0.3368,0.3409,0.3498,0.3511,0.3523,0.3541,0.3537,0.3555,0.3632,0.3545,0.3546,0.3587,0.3769,0.3613,0.3615,0.3646,0.3649,0.3652,0.3766,0,0.2879,0.2955,0.3011,0.3094,0.3139,0.3209,0.3285,0.3362,0.343,0.3518,0.355,0.3619,0.3577,0.3603,0.3629,0.3644,0.3676,0.3603,0.371,0.3713,0.3568,0.3628,0.3334,0.3397,0.3781,0.3783,0.3785,0,0.2922,0.2973,0.305,0.3143,0.3172,0.3226,0.3361,0.343,0.3555,0.3611,0.3695,0.3737,0.3809,0.3748,0.3834,0.3802,0.3799,0.3784,0.3789,0.3642,0.3585,0.3406,0.341,0.381,0.3808,0.3806,0.3805,0,0.2918,0.3011,0.3077,0.311,0.3212,0.327,0.3336,0.3455,0.3524,0.3685,0.3741,0.386,0.3926,0.3958,0.3942,0.3917,0.4009,0.3975,0.3836,0.3825,0.3592,0.3554,0.4033,0.4033,0.4033,0.4032,0.4032,0,0.2946,0.3001,0.3075,0.3113,0.3189,0.3266,0.3367,0.3453,0.3581,0.3669,0.379,0.3879,0.3982,0.4044,0.4015,0.3975,0.4088,0.386,0.3849,0.3594,0.3557,0.3924,0.391,0.4037,0.4036,0.4035,0.4034,0,0.2931,0.2993,0.3053,0.3151,0.3189,0.3238,0.3358,0.3415,0.3553,0.3681,0.3741,0.3932,0.4035,0.408,0.4145,0.4052,0.4024,0.3973,0.3658,0.3604,0.3793,0.378,0.3862,0.3858,0.3854,0.3851,0.3849,0,0.2923,0.2952,0.305,0.3073,0.312,0.3203,0.3254,0.3394,0.3451,0.3691,0.3735,0.392,0.3971,0.4009,0.3929,0.3873,0.3981,0.3553,0.3423,0.3797,0.3779,0.3771,0.3764,0.3146,0.3138,0.3131,0.3126,0,0.2871,0.2911,0.2946,0.3,0.3053,0.3115,0.3198,0.3239,0.3417,0.3522,0.3679,0.3743,0.3809,0.3636,0.3556,0.3476,0.3537,0.3411,0.3921,0.321,0.3123,0.3104,0.312,0.3066,0.3072,0.3076,0.308,0.3082,0.2801,0.2802,0.284,0.2891,0.2951,0.2997,0.3015,0.3083,0.3162,0.3225,0.3416,0.3375,0.3398,0.3112,0.3007,0.2955,0.3176,0.3024,0.3045,0.3073,0.2945,0.2853,0.2723,0.2727,0.273,0.2733,0.2735,0,0.2662,0.2701,0.2723,0.2766,0.2777,0.2893,0.2948,0.2908,0.293,0.2951,0.2974,0.2671,0.2512,0.2587,0.239,0.2333,0.231,0.2268,0.2237,0.2298,0.2351,0.2186,0.1763,0.176,0.1757,0.1755,0,0,0.2586,0.2552,0.2575,0.2566,0.2641,0.2642,0.2669,0.2567,0.2532,0.2389,0.2302,0.2321,0.2464,0.2065,0.201,0.1881,0.2076,0.1801,0.2581,0.2606,0.2656,0.2786,0.2598,0,0,0,0,0]},{"header":{"parameterUnit":"m.s-1","parameterCategory":2,"la1":30.2991,"la2":30.254,"lo1":-89.0895,"lo2":-89.0444,"dy":0.0017,"dx":0.0017,"nx":28,"ny":28,"refTime":"2025-03-23T09:00:00:Z","depth":"2","parameterNumber":3,"parameterNumberName":"V-component_of_CURRENTS"},"data":[0,0,0,0,0,0,0,0,0,0,0,0,0,0,0,0,0,0,0,0,0,0,0,0,0,0,0,0,0,0,0,0,0,0,0,0,0,0,0,0,0,0,0,0,0,0,0,0,0,0,0,0,0,0,0,0,0,0,-0.0504,-0.0505,0,-0.0591,-0.0592,-0.0592,-0.0601,-0.0601,-0.06,-0.0599,-0.0595,-0.0595,-0.0596,0,0,0,0,0,0,0,0,0,0,0,0,0,-0.0381,-0.0383,-0.0504,-0.0505,-0.0506,-0.0591,-0.0592,-0.0593,-0.0602,-0.0601,-0.06,-0.0599,-0.0594,-0.0595,-0.0596,0,0,0,0,0,0,0,0,0,0,0,0,0,-0.0446,-0.0384,-0.0504,-0.0523,-0.0525,-0.059,-0.0592,-0.0593,-0.0602,-0.0601,-0.06,-0.0599,-0.0594,-0.0595,-0.0596,-0.0622,0,0,-0.0598,-0.0598,0,0,0,0,0,0,0,0,-0.0442,-0.045,-0.0518,-0.0521,-0.0525,-0.0586,-0.0547,-0.0599,-0.0602,-0.0571,-0.0599,-0.0598,-0.0585,-0.0587,-0.0604,-0.0622,-0.0621,-0.0598,-0.0599,-0.0599,-0.0599,0,0,0,0,0,0,0,-0.0438,-0.0447,-0.0536,-0.052,-0.0524,-0.0539,-0.0546,-0.0557,-0.0579,-0.0573,-0.0575,-0.0588,-0.0586,-0.0603,-0.0604,-0.0621,-0.0598,-0.0599,-0.0599,-0.06,-0.0533,-0.0531,0,0,0,0,0,0,-0.0431,-0.0443,-0.0534,-0.0539,-0.0482,-0.0542,-0.055,-0.0566,-0.0581,-0.0584,-0.0589,-0.0588,-0.0602,-0.0603,-0.0603,-0.0527,-0.0599,-0.06,-0.06,-0.0535,-0.0533,-0.053,0,0,0,0,0,0,-0.0428,-0.0438,-0.053,-0.0494,-0.0507,-0.0545,-0.0562,-0.0568,-0.0575,-0.0595,-0.0595,-0.0589,-0.0602,-0.0602,-0.059,-0.053,-0.06,-0.0601,-0.0538,-0.0535,-0.0531,-0.0442,0,0,0,0,0,0,-0.0424,-0.0437,-0.044,-0.0494,-0.0509,-0.0557,-0.0564,-0.0571,-0.0587,-0.0586,-0.0595,-0.0595,-0.0601,-0.0589,-0.0591,-0.0533,-0.0601,-0.0541,-0.0536,-0.0532,-0.0448,-0.0436,-0.0426,0,0,0,0,0,-0.0419,-0.0429,-0.044,-0.0451,-0.0514,-0.0557,-0.0565,-0.0588,-0.0587,-0.059,-0.0585,-0.0594,-0.0562,-0.0589,-0.0591,-0.0532,-0.0543,-0.0538,-0.0533,-0.0453,-0.0439,-0.0427,0,0,0,0,0,0,-0.0372,-0.0433,-0.0445,-0.0471,-0.0505,-0.0559,-0.0566,-0.0584,-0.0588,-0.0577,-0.0589,-0.0588,-0.0545,-0.0559,-0.0588,-0.0497,-0.0544,-0.054,-0.0483,-0.0469,-0.0459,-0.0452,-0.0602,0,0,0,0,0,-0.0366,-0.0389,-0.0445,-0.0461,-0.0478,-0.052,-0.0538,-0.0555,-0.0572,-0.0573,-0.0574,-0.0559,-0.053,-0.0519,-0.0508,-0.048,-0.0502,-0.0435,-0.0424,-0.0415,-0.0409,-0.0388,-0.0375,-0.0514,-0.0514,-0.0514,0,0,-0.0351,-0.0388,-0.0399,-0.0452,-0.0479,-0.0482,-0.0527,-0.055,-0.0527,-0.0571,-0.0529,-0.0529,-0.0516,-0.0467,-0.0448,-0.047,-0.0389,-0.0408,-0.04,-0.04,-0.0381,-0.0368,-0.0356,-0.051,-0.0511,-0.0511,0,0,-0.0333,-0.0365,-0.0377,-0.0397,-0.0439,-0.0457,-0.0459,-0.05,-0.0492,-0.0476,-0.0472,-0.0444,-0.0425,-0.0392,-0.0373,-0.0301,-0.0334,-0.0285,-0.0223,-0.0202,-0.0191,-0.0181,-0.021,-0.0203,-0.0277,-0.0276,-0.0276,0,-0.0311,-0.0326,-0.0383,-0.0389,-0.0382,-0.0435,-0.0416,-0.0423,-0.0445,-0.0419,-0.0443,-0.038,-0.0379,-0.0294,-0.0264,-0.0273,-0.029,-0.0275,-0.0189,-0.0179,-0.0171,-0.0203,-0.0197,-0.0271,-0.0272,-0.0273,-0.0273,0,-0.0298,-0.0297,-0.0301,-0.0312,-0.0314,-0.0312,-0.0323,-0.0308,-0.0304,-0.0307,-0.0244,-0.0253,-0.0206,-0.0194,-0.021,-0.0128,-0.017,-0.0181,-0.0226,-0.0152,-0.019,-0.0185,-0.0264,-0.0266,-0.0268,-0.0269,0,0,-0.0274,-0.0289,-0.0283,-0.0262,-0.0265,-0.0267,-0.021,-0.0178,-0.013,-0.014,-0.0057,-0.0036,-0.0051,-0.0032,-0.004,-0.0035,-0.0002,-0.0081,-0.0083,-0.0117,0.0009,-0.0059,-0.0062,0.0002,0.0004,0.0005,-0.0049,0,-0.0236,-0.0217,-0.0224,-0.0166,-0.0148,-0.0142,-0.0084,-0.0056,-0.0033,0.0031,0.0037,0.0098,0.0018,0.0054,0.005,0.0029,0.0017,0.0011,-0.0051,-0.0054,-0.0128,-0.0055,-0.0045,-0.0094,-0.0045,-0.0044,-0.0044,0,-0.0207,-0.0195,-0.0138,-0.0081,-0.0069,-0.003,0.0066,0.0106,0.0177,0.0203,0.0248,0.0249,0.0289,0.021,0.0171,0.017,0.0096,0.0045,0.0042,-0.0048,-0.0112,-0.0155,-0.0088,-0.0037,-0.0037,-0.0038,-0.0038,0,-0.0157,-0.0122,-0.0065,-0.0049,-0.0001,0.0054,0.0096,0.0163,0.0222,0.0324,0.0384,0.0404,0.0458,0.0367,0.0248,0.0226,0.018,0.0144,-0.0002,-0.001,-0.0026,-0.0038,0.0108,0.0108,0.0108,0.0108,0.0109,0,-0.0107,-0.0059,-0.004,-0.001,0.0071,0.01,0.0205,0.025,0.0354,0.0458,0.0472,0.0553,0.0504,0.0469,0.0314,0.0168,0.0231,0.0018,-0.0011,0.0002,-0.0007,0.0024,0.0015,0.0106,0.0107,0.0107,0.0107,0,-0.0062,-0.0045,0.0009,0.0065,0.0091,0.0148,0.0257,0.0329,0.0419,0.0571,0.0623,0.0702,0.0672,0.055,0.0441,0.0277,0.0124,0.0046,0.0038,0.0008,-0.0106,-0.0109,-0.0104,-0.0107,-0.0109,-0.011,-0.0112,0,-0.0039,-0.0012,0.0046,0.0078,0.0107,0.0193,0.0258,0.0357,0.0451,0.0644,0.0729,0.0788,0.0834,0.062,0.0377,0.012,0.0099,-0.0061,-0.0101,-0.009,-0.0119,-0.0119,-0.012,-0.0098,-0.0099,-0.01,-0.0101,0,-0.0014,0.0004,0.0035,0.0102,0.0168,0.0261,0.0373,0.0466,0.0625,0.0789,0.0989,0.1051,0.0875,0.0671,0.0318,0.0124,-0.0018,-0.0094,-0.0028,-0.0054,-0.009,-0.0117,-0.0116,-0.011,-0.0109,-0.0109,-0.0108,-0.0108,-0.0011,0.001,0.0046,0.0122,0.0205,0.0346,0.0472,0.0636,0.0851,0.1135,0.1134,0.1242,0.0961,0.054,0.0218,-0.0098,-0.009,-0.0213,-0.0207,-0.02,-0.0197,-0.0235,-0.0285,-0.0285,-0.0285,-0.0285,-0.0285,0,-0.0018,0.0012,0.0068,0.0173,0.0293,0.0351,0.0563,0.0746,0.1061,0.124,0.1427,0.1176,0.0892,0.0568,0.0081,-0.0235,-0.0236,-0.0318,-0.0248,-0.0238,-0.023,-0.0226,-0.0323,-0.0324,-0.0324,-0.0325,0,0,-0.0028,0.0017,0.006,0.0237,0.0344,0.0567,0.0727,0.1035,0.1223,0.1455,0.1515,0.1446,0.1004,0.0644,0.0228,-0.0034,-0.0059,-0.0089,-0.0032,0.0108,0.0121,-0.0153,-0.0135,0,0,0,0,0]}],[{"header":{"parameterUnit":"m.s-1","parameterCategory":2,"la1":30.2991,"la2":30.254,"lo1":-89.0895,"lo2":-89.0444,"dy":0.0017,"dx":0.0017,"nx":28,"ny":28,"refTime":"2025-03-23T09:00:00:Z","depth":"4","parameterNumber":2,"parameterNumberName":"U-component_of_CURRENTS"},"data":[0,0,0,0,0,0,0,0,0,0,0,0,0,0,0,0,0,0,0,0,0,0,0,0,0,0,0,0,0,0,0,0,0,0,0,0,0,0,0,0,0,0,0,0,0,0,0,0,0,0,0,0,0,0,0,0,0,0,0.0583,0.0584,0,0.0595,0.0594,0.0594,0.0643,0.0645,0.0647,0.0649,0.0813,0.0815,0.0817,0,0,0,0,0,0,0,0,0,0,0,0,0,0.0512,0.0513,0.0583,0.0584,0.0586,0.0595,0.0594,0.0594,0.0643,0.0645,0.0648,0.065,0.0812,0.0815,0.0817,0,0,0,0,0,0,0,0,0,0,0,0,0,0.0525,0.0513,0.0583,0.0619,0.0623,0.0596,0.0594,0.0593,0.0642,0.0645,0.0649,0.0652,0.0811,0.0814,0.0818,0.0775,0,0,0.0829,0.083,0,0,0,0,0,0,0,0,0.0524,0.0526,0.0613,0.0617,0.0622,0.0631,0.063,0.0666,0.0641,0.0624,0.065,0.0653,0.0771,0.0777,0.0755,0.0783,0.079,0.0829,0.0831,0.0833,0.0834,0,0,0,0,0,0,0,0.0524,0.0526,0.0577,0.0614,0.0619,0.0605,0.0609,0.0635,0.0673,0.0625,0.0632,0.0649,0.0773,0.0751,0.076,0.0792,0.0829,0.0832,0.0834,0.0835,0.105,0.1053,0,0,0,0,0,0,0.0545,0.0525,0.0577,0.0579,0.0592,0.0604,0.0609,0.0615,0.067,0.0683,0.0647,0.0652,0.0743,0.0756,0.0766,0.0914,0.0833,0.0836,0.0838,0.1046,0.1051,0.1055,0,0,0,0,0,0,0.0543,0.0549,0.0577,0.0561,0.0566,0.0604,0.0609,0.0614,0.0619,0.0686,0.0701,0.0651,0.0746,0.0761,0.0836,0.0914,0.0837,0.0841,0.1042,0.1048,0.1053,0.1087,0,0,0,0,0,0,0.0541,0.0547,0.054,0.0563,0.0568,0.0596,0.0608,0.0613,0.0629,0.0636,0.0695,0.0711,0.075,0.0831,0.084,0.0918,0.0843,0.1038,0.1045,0.1051,0.1081,0.1092,0.1102,0,0,0,0,0,0.0538,0.053,0.0538,0.0545,0.0562,0.0598,0.0598,0.0628,0.0626,0.0638,0.0688,0.0711,0.0882,0.0834,0.0844,0.0926,0.1034,0.1043,0.1051,0.1076,0.109,0.1102,0,0,0,0,0,0,0.0499,0.0535,0.0546,0.055,0.0588,0.0612,0.0623,0.0626,0.0659,0.068,0.072,0.0741,0.0865,0.0874,0.082,0.1015,0.0976,0.0986,0.0992,0.1006,0.1016,0.1068,0.0846,0,0,0,0,0,0.0484,0.049,0.0533,0.0541,0.0563,0.0584,0.0594,0.0622,0.0664,0.0679,0.0745,0.0817,0.0895,0.0929,0.1015,0.1066,0.1096,0.1141,0.1152,0.116,0.1214,0.1341,0.1367,0.1081,0.1081,0.1081,0,0,0.047,0.0496,0.0496,0.0533,0.0561,0.0606,0.0597,0.0639,0.07,0.0694,0.081,0.0866,0.0926,0.1035,0.1089,0.1049,0.1237,0.117,0.1176,0.1228,0.1352,0.138,0.1404,0.1087,0.1086,0.1085,0,0,0.0475,0.0477,0.0496,0.0525,0.0587,0.062,0.0637,0.0699,0.0753,0.0856,0.0887,0.0994,0.1095,0.1166,0.1204,0.1316,0.1311,0.1331,0.1398,0.1518,0.1543,0.1565,0.154,0.156,0.1309,0.131,0.131,0,0.0463,0.0492,0.0509,0.0547,0.0588,0.0634,0.0686,0.0738,0.0829,0.0881,0.0933,0.1122,0.1188,0.1283,0.1352,0.1349,0.1352,0.1329,0.1531,0.1554,0.1577,0.1547,0.1569,0.1312,0.1312,0.1312,0.1311,0,0.0476,0.0516,0.0539,0.061,0.0651,0.0705,0.0796,0.0866,0.0959,0.1024,0.1194,0.1293,0.1405,0.1442,0.1443,0.1604,0.1528,0.1543,0.1488,0.1607,0.1567,0.1589,0.1316,0.1315,0.1314,0.1314,0,0,0.0439,0.053,0.0547,0.0591,0.0692,0.073,0.085,0.0963,0.1033,0.1194,0.1293,0.1497,0.1545,0.1597,0.1605,0.1712,0.1856,0.1692,0.1697,0.1648,0.201,0.1823,0.1827,0.1889,0.1896,0.1901,0.1879,0,0.0465,0.0538,0.0592,0.0692,0.074,0.0822,0.0905,0.1008,0.1155,0.1263,0.1395,0.1538,0.1595,0.1657,0.1777,0.1862,0.1933,0.1854,0.1923,0.1924,0.1731,0.1857,0.1923,0.1896,0.1901,0.1905,0.1907,0,0.0477,0.0525,0.0615,0.072,0.0748,0.0821,0.0966,0.1065,0.1213,0.1326,0.1488,0.1574,0.1756,0.1799,0.2032,0.1966,0.2019,0.207,0.207,0.1924,0.1785,0.1783,0.1947,0.1944,0.1941,0.1938,0.1936,0,0.0434,0.0556,0.0631,0.0662,0.0774,0.0846,0.0937,0.1088,0.1193,0.1396,0.1484,0.1678,0.1794,0.1964,0.211,0.2088,0.2308,0.2279,0.213,0.2109,0.226,0.2238,0.2458,0.2458,0.2458,0.2458,0.2458,0,0.0437,0.0496,0.0619,0.0643,0.0707,0.0829,0.0953,0.106,0.1241,0.134,0.1528,0.163,0.1868,0.1993,0.2111,0.2185,0.2326,0.2184,0.2142,0.2256,0.2235,0.2267,0.2246,0.2457,0.2457,0.2457,0.2457,0,0.0384,0.0465,0.053,0.065,0.0688,0.0747,0.0939,0.1033,0.1227,0.1365,0.144,0.164,0.1811,0.1956,0.2179,0.2162,0.2272,0.2243,0.2279,0.2231,0.1959,0.194,0.2072,0.2066,0.2062,0.2058,0.2054,0,0.0366,0.0394,0.0493,0.0521,0.0591,0.0708,0.0772,0.0995,0.1126,0.136,0.1403,0.1587,0.1695,0.1839,0.2012,0.2141,0.2146,0.2128,0.2146,0.2,0.1945,0.1933,0.1921,0.2047,0.2045,0.2044,0.2043,0,0.0304,0.0342,0.0386,0.043,0.051,0.0587,0.0737,0.0817,0.1063,0.1218,0.1376,0.148,0.1584,0.1745,0.1829,0.1941,0.2128,0.2078,0.2088,0.2106,0.197,0.1918,0.1911,0.2026,0.2029,0.203,0.2031,0,0.0251,0.0252,0.0305,0.0348,0.0418,0.048,0.0565,0.0735,0.088,0.1168,0.1196,0.1393,0.1547,0.1635,0.175,0.1813,0.1806,0.1778,0.1804,0.1824,0.1766,0.1558,0.1491,0,0,0,0,0,0.0202,0.0204,0.0223,0.0272,0.034,0.0384,0.0541,0.0655,0.0868,0.0949,0.1099,0.1214,0.1364,0.1477,0.1502,0.1613,0.1786,0.163,0.1759,0.1934,0.1953,0.1914,0,0,0,0,0,0,0.017,0.0185,0.0193,0.0209,0.0235,0.0312,0.0407,0.0543,0.0636,0.0848,0.096,0.1108,0.1293,0.1334,0.1465,0.1496,0.1549,0.1762,0.1759,0.1923,0.1941,0.1956,0.1923,0,0,0,0,0]},{"header":{"parameterUnit":"m.s-1","parameterCategory":2,"la1":30.2991,"la2":30.254,"lo1":-89.0895,"lo2":-89.0444,"dy":0.0017,"dx":0.0017,"nx":28,"ny":28,"refTime":"2025-03-23T09:00:00:Z","depth":"4","parameterNumber":3,"parameterNumberName":"V-component_of_CURRENTS"},"data":[0,0,0,0,0,0,0,0,0,0,0,0,0,0,0,0,0,0,0,0,0,0,0,0,0,0,0,0,0,0,0,0,0,0,0,0,0,0,0,0,0,0,0,0,0,0,0,0,0,0,0,0,0,0,0,0,0,0,0.0419,0.042,0,0.0429,0.0429,0.0429,0.0424,0.0423,0.0423,0.0423,0.0358,0.0356,0.0355,0,0,0,0,0,0,0,0,0,0,0,0,0,0.0366,0.0368,0.0419,0.042,0.042,0.0429,0.0429,0.0429,0.0424,0.0423,0.0423,0.0423,0.0358,0.0356,0.0355,0,0,0,0,0,0,0,0,0,0,0,0,0,0.0384,0.0368,0.0419,0.0419,0.0419,0.0429,0.0429,0.0429,0.0424,0.0423,0.0423,0.0423,0.0359,0.0357,0.0354,0.0346,0,0,0.0347,0.0346,0,0,0,0,0,0,0,0,0.0383,0.0385,0.0419,0.0419,0.0419,0.0425,0.0386,0.0398,0.0424,0.0421,0.0423,0.0423,0.0374,0.037,0.0373,0.0343,0.0341,0.0347,0.0346,0.0345,0.0344,0,0,0,0,0,0,0,0.0382,0.0385,0.0423,0.0419,0.0419,0.0407,0.041,0.0389,0.0397,0.0421,0.0421,0.0423,0.0373,0.0376,0.0371,0.034,0.0347,0.0345,0.0344,0.0343,0.0253,0.0252,0,0,0,0,0,0,0.0384,0.0384,0.0422,0.0423,0.04,0.0409,0.0411,0.0423,0.0399,0.0396,0.0424,0.0423,0.038,0.0374,0.0369,0.0325,0.0345,0.0342,0.0341,0.0254,0.0253,0.0252,0,0,0,0,0,0,0.0383,0.0387,0.0422,0.0403,0.0407,0.041,0.0423,0.0423,0.0432,0.0402,0.0397,0.0433,0.0379,0.0372,0.0364,0.0324,0.0341,0.0339,0.0255,0.0254,0.0252,0.0258,0,0,0,0,0,0,0.0381,0.0387,0.0405,0.0404,0.0408,0.0433,0.0424,0.0424,0.0434,0.0433,0.0408,0.0402,0.0378,0.0368,0.0362,0.0321,0.0338,0.0257,0.0255,0.0253,0.0259,0.0257,0.0255,0,0,0,0,0,0.038,0.0407,0.0406,0.0411,0.043,0.0433,0.0435,0.0435,0.0435,0.0441,0.0431,0.0403,0.035,0.0367,0.036,0.0316,0.0257,0.0255,0.0253,0.026,0.0258,0.0255,0,0,0,0,0,0,0.039,0.0409,0.0408,0.0439,0.0436,0.0433,0.0448,0.0442,0.0441,0.0442,0.0413,0.0406,0.0377,0.0354,0.0373,0.0283,0.0289,0.0286,0.0297,0.0294,0.0292,0.0269,0.0336,0,0,0,0,0,0.0401,0.0433,0.043,0.0456,0.0457,0.0453,0.0458,0.0453,0.0448,0.0448,0.0432,0.0401,0.036,0.0339,0.0313,0.0278,0.0253,0.0237,0.0235,0.0234,0.0209,0.0172,0.0165,0.0245,0.0245,0.0245,0,0,0.0418,0.0429,0.045,0.0461,0.0463,0.0458,0.0456,0.0465,0.0454,0.0439,0.0433,0.0406,0.0355,0.0313,0.0294,0.0289,0.0198,0.0231,0.023,0.0205,0.0169,0.0161,0.0155,0.0243,0.0243,0.0244,0,0,0.0448,0.0469,0.0495,0.0487,0.0487,0.0481,0.0484,0.048,0.0474,0.0465,0.0436,0.0388,0.0358,0.0292,0.0256,0.0226,0.02,0.0216,0.0174,0.014,0.0133,0.0126,0.009,0.0081,0.0202,0.0202,0.0202,0,0.0461,0.0488,0.05,0.0498,0.0498,0.0489,0.0491,0.0477,0.047,0.0456,0.0464,0.0368,0.0332,0.0233,0.0215,0.0215,0.0205,0.0191,0.0138,0.0131,0.0124,0.0088,0.0078,0.0202,0.0202,0.0202,0.0202,0,0.0481,0.0503,0.0515,0.0513,0.0513,0.0518,0.0493,0.0488,0.0483,0.0457,0.0392,0.0336,0.0269,0.0236,0.0214,0.0125,0.0137,0.0153,0.0147,0.0116,0.0081,0.007,0.0203,0.0202,0.0202,0.0202,0,0,0.0517,0.053,0.0536,0.0542,0.0522,0.0529,0.0504,0.0479,0.0467,0.0415,0.0374,0.0265,0.0229,0.0182,0.013,0.0073,0.0016,0.0091,0.0089,0.006,-0.0053,-0.0041,-0.0052,0.0042,0.004,0.0038,-0.0056,0,0.0531,0.0545,0.0546,0.0561,0.0565,0.0544,0.0526,0.0493,0.0471,0.0431,0.0316,0.0272,0.0208,0.0183,0.0102,0.0043,-0.0014,0.0039,-0.0025,-0.0028,-0.0009,-0.0065,0.0032,-0.0064,-0.0067,-0.0069,-0.007,0,0.0546,0.0557,0.058,0.0591,0.0593,0.0602,0.0588,0.0573,0.0492,0.0466,0.0364,0.0298,0.0152,0.0147,-0.0028,0.002,-0.0024,-0.0071,-0.0074,-0.008,-0.0038,-0.0031,-0.0091,-0.0089,-0.0087,-0.0086,-0.0085,0,0.0566,0.0586,0.0618,0.0615,0.0614,0.0632,0.0641,0.0594,0.0597,0.0503,0.0478,0.0302,0.0233,0.0117,-0.0018,-0.0004,-0.0172,-0.0154,-0.0197,-0.0196,-0.0177,-0.0169,-0.0251,-0.0251,-0.025,-0.025,-0.025,0,0.0574,0.06,0.0645,0.0654,0.0693,0.0689,0.0728,0.0692,0.0668,0.0643,0.0511,0.043,0.0234,0.0103,-0.0012,-0.0161,-0.0171,-0.0233,-0.023,-0.0171,-0.0162,-0.0185,-0.0176,-0.0254,-0.0253,-0.0252,-0.0252,0,0.0585,0.0609,0.0649,0.0686,0.0706,0.0745,0.0812,0.0836,0.0797,0.0756,0.0729,0.0539,0.0349,0.0158,-0.0032,-0.0133,-0.0271,-0.03,-0.0241,-0.0227,-0.0274,-0.0264,-0.0381,-0.0381,-0.0382,-0.0382,-0.0383,0,0.0586,0.0613,0.0684,0.0721,0.0754,0.0825,0.0871,0.0893,0.0912,0.0801,0.0766,0.0589,0.0432,0.0145,-0.0041,-0.0269,-0.0281,-0.0347,-0.0328,-0.0308,-0.0293,-0.0282,-0.0271,-0.0383,-0.0384,-0.0384,-0.0384,0,0.0586,0.0631,0.0668,0.0746,0.0825,0.0899,0.0966,0.098,0.0967,0.0943,0.0782,0.0598,0.0382,0.0136,-0.0028,-0.0191,-0.0317,-0.0353,-0.0352,-0.0335,-0.0312,-0.0295,-0.0284,-0.0386,-0.0385,-0.0385,-0.0385,0,0.0598,0.0631,0.0698,0.0765,0.0861,0.0926,0.0962,0.0973,0.0992,0.0875,0.0817,0.0569,0.0435,0.0177,0.0011,-0.0144,-0.018,-0.0216,-0.0224,-0.0224,-0.015,-0.0097,-0.0127,0,0,0,0,0,0.0594,0.0637,0.0703,0.0782,0.0881,0.0936,0.0997,0.1025,0.1006,0.0908,0.0871,0.0663,0.0368,0.0228,0.0075,0.0006,-0.0201,-0.0178,-0.0245,-0.0396,-0.0394,-0.0334,0,0,0,0,0,0,0.0598,0.066,0.0696,0.0792,0.085,0.0962,0.1001,0.0986,0.0932,0.0872,0.072,0.0645,0.0367,0.0462,0.0077,0.0026,-0.0033,-0.0308,-0.0311,-0.0397,-0.0395,-0.0393,-0.0331,0,0,0,0,0]}]]